[keps] orb09018.2l.amsat

Ray Hoad r.hoad at att.net
Sun Jan 18 21:13:29 PST 2009


SB KEPS @ AMSAT  $ORB09018.N
2Line Orbital Elements 09018.AMSAT

HR AMSAT ORBITAL ELEMENTS FOR AMATEUR SATELLITES IN NASA FORMAT
FROM WA5QGD FORT WORTH,TX January 18, 2009
Send Subscribe/unsubscribe to KEPS at 
http://www.amsat.org/mailman/listinfo/keps
BID: ORB09018.N

DECODE 2-LINE ELSETS WITH THE FOLLOWING KEY:
1 AAAAAU 00  0  0 BBBBB.BBBBBBBB  .CCCCCCCC  00000-0  00000-0 0  DDDZ
2 AAAAA EEE.EEEE FFF.FFFF GGGGGGG HHH.HHHH III.IIII JJ.JJJJJJJJKKKKKZ
KEY: A-CATALOGNUM B-EPOCHTIME C-DECAY D-ELSETNUM E-INCLINATION F-RAAN
G-ECCENTRICITY H-ARGPERIGEE I-MNANOM J-MNMOTION K-ORBITNUM Z-CHECKSUM

TO ALL RADIO AMATEURS BT

AO-07
1 07530U 74089B   09017.65368652 -.00000027  00000-0  10000-3 0 03821
2 07530 101.4437 047.7725 0011832 202.9754 157.0789 12.53575118563855
AO-10
1 14129U 83058B   09018.21569881  .00000172  00000-0  10000-3 0  6103
2 14129 026.0191 175.7551 5965168 190.7784 146.4273 02.05867219192532
UO-11
1 14781U 84021B   09018.56689864  .00000235  00000-0  38517-4 0  8645
2 14781 098.1287 061.5069 0010134 099.0987 261.1352 14.79690995335703
RS-15
1 23439U 94085A   09017.82495191 -.00000039  00000-0  10000-3 0 02117
2 23439 064.8134 147.9632 0145967 080.9446 280.7962 11.27553530579168
FO-29
1 24278U 96046B   09018.54557100 -.00000037  00000-0 -15817-5 0  9543
2 24278 098.5764 272.5148 0350933 018.1251 343.2043 13.52941713613515
SO-33
1 25509U 98061B   09018.82631018  .00000050  00000-0 -13887-5 0  3703
2 25509 031.4282 177.0555 0354107 112.5748 251.2736 14.28236037534465
AO-40
1 26609U 00072B   09018.37611171 -.00000028  00000-0  10000-3 0  1804
2 26609 008.5299 037.4226 7943071 166.7501 245.3606 01.25583418 37743
VO-52
1 28650U 05017B   09017.77878280  .00000025  00000-0  97723-5 0 01338
2 28650 097.7635 084.1881 0027513 158.5172 201.7175 14.81544246200371
PO-63
1 29712U 07001D   09018.78612806  .00000494  00000-0  71306-4 0  1591
2 29712 097.8493 078.6321 0015031 043.7496 316.4902 14.80414871109365
AO-16
1 20439U 90005D   09017.46962926 -.00000040  00000-0  45582-6 0 05141
2 20439 098.2587 352.8919 0009993 259.3319 100.6737 14.31813274991588
LO-19
1 20442U 90005G   09018.52955033 -.00000013  00000-0  10414-4 0  4372
2 20442 098.2246 001.7254 0010905 252.3242 107.6758 14.32050632991895
AO-27
1 22825U 93061C   09018.54219305  .00000112  00000-0  60539-4 0  1550
2 22825 098.4179 336.8385 0008344 351.9282 008.1768 14.29257267798531
IO-26
1 22826U 93061D   09018.62866189 -.00000006  00000-0  14308-4 0  8742
2 22826 098.4107 337.7362 0008949 347.3274 012.7682 14.29507113798645
GO-32
1 25397U 98043D   09018.74163340 -.00000057  00000-0 -73610-5 0  8003
2 25397 098.3423 048.9836 0001187 016.1086 344.0117 14.23153728546870
NO-44
1 26931U 01043C   09018.21410813 -.00000075  00000-0  30346-5 0   767
2 26931 067.0523 090.7126 0005865 260.8231 099.2219 14.29544426381147
SO-50
1 27607U 02058C   09018.59709417  .00000093  00000-0  36399-4 0  7935
2 27607 064.5585 119.4193 0081137 237.5643 121.7553 14.71409479326668
CO-55
1 27844U 03031E   09017.76280702  .00000047  00000-0  42169-4 0  4904
2 27844 098.7153 029.0404 0009259 215.0798 144.9771 14.20618076287900
CO-57
1 27848U 03031J   09017.57863785  .00000003  00000-0  21962-4 0  4376
2 27848 098.7161 027.9251 0009111 221.3440 138.7047 14.20422742287844
AO-51
1 28375U 04025K   09018.63745075  .00000001  00000-0  13165-4 0  2951
2 28375 098.0567 036.9243 0082901 219.1049 140.4133 14.40630679239421
CO-56
1 28941U 06005C   09018.62232546  .00023073  27530-5  12762-3 0  7360
2 28941 098.1233 167.0865 0125272 331.8942 027.5612 15.69614580163686
CP3
1 31128U 07012M   09018.68588960 -.00000047  00000-0  00000 0 0  5349
2 31128 098.0129 078.6887 0103557 028.8413 331.8449 14.52010951 93201
CP4
1 31132U 07012Q   09017.83660418 -.00000069  00000-0 -48126-5 0  5127
2 31132 098.0173 081.1172 0086344 022.2282 338.2571 14.55175939 93160
CO-65
1 32785U 08021C   09018.31713423 -.00000096  00000-0 -54393-5 0  2672
2 32785 097.9671 083.3783 0015338 154.3550 205.8423 14.81438556 39259
NOAA-10
1 16969U 86073A   09018.28749538 -.00000021  00000-0  95251-5 0  4647
2 16969 098.7067 045.6431 0011557 274.8064 085.1783 14.27378028162129
NOAA-11
1 19531U 88089A   09018.28872595  .00000179  00000-0  11514-3 0  4803
2 19531 098.7889 110.5475 0011546 172.4305 187.7026 14.14887699 48327
NOAA-12
1 21263U 91032A   09018.53898829  .00000028  00000-0  30951-4 0  9812
2 21263 098.7722 026.5285 0011688 218.4411 141.5936 14.25563372919077
MET-3/5
1 21655U 91056A   09018.56600105  .00000051  00000-0  10000-3 0  5447
2 21655 082.5520 312.2081 0012584 191.7021 168.3810 13.17017677837938
MET-2/21
1 22782U 93055A   09017.83820356  .00000071  00000-0  50803-4 0 03571
2 22782 082.5503 301.2837 0023793 050.5898 309.7363 13.83634571776810
OKEAN-4
1 23317U 94066A   09017.80650081  .00000183  00000-0  19617-4 0  8030
2 23317 082.5396 114.8262 0023222 136.8875 223.4176 14.82668272770087
NOAA-14
1 23455U 94089A   09018.48629251  .00000068  00000-0  59634-4 0  4815
2 23455 098.9242 096.6107 0008726 252.9084 107.1160 14.13755941724770
NOAA-15
1 25338U 98030A   09018.32792462 -.00000024  00000-0  80766-5 0  7799
2 25338 098.5737 010.9138 0011336 131.6625 228.5527 14.24741681555433
RESURS
1 25394U 98043A   09018.51502767 -.00000001  00000-0  17407-4 0  1210
2 25394 098.3597 058.3399 0001138 328.3701 031.7411 14.24179210547093
FENGYUN1
1 25730U 99025A   09018.90315892  .00000164  00000-0  12148-3 0  6657
2 25730 098.7432 353.6289 0022299 280.6234 079.2425 14.07919841499316
OKEAN-0
1 25860U 99039A   09018.51146859  .00000011  00000-0  89887-5 0  5777
2 25860 097.7708 005.7741 0000866 039.4889 320.6375 14.73554330511105
NOAA-16
1 26536U 00055A   09018.33506641  .00000275  00000-0  17419-3 0  2552
2 26536 099.1733 018.4051 0010272 345.8163 014.2750 14.12508927429145
NOAA-17
1 27453U 02032A   09018.48275663  .00000205  00000-0  10761-3 0  2681
2 27453 098.5071 082.5672 0011579 196.2978 163.7841 14.24034858341443
NOAA-18
1 28654U 05018A   09018.52163529  .00000202  00000-0  13607-3 0  7532
2 28654 098.8930 323.0441 0015133 067.0627 293.2105 14.11227539188848
HUBBLE
1 20580U 90037B   09017.33036055  .00000291  00000-0  96337-5 0 03186
2 20580 028.4705 006.4606 0003834 140.3851 219.7016 15.00447313827174
PO-34
1 25520U 98064B   09018.55332248  .00000382  00000-0  90094-5 0  1667
2 25520 028.4598 176.8338 0005558 114.8205 245.2972 15.17285285565902
ISS
1 25544U 98067A   09018.53673810  .00011337  00000-0  95262-4 0   973
2 25544 051.6434 352.9819 0007813 279.1391 184.3598 15.70422260582410
CO-58
1 28895U 05043F   09015.68742708 -.00000046  00000-0 -57907-7 0 02115
2 28895 098.0781 270.4088 0019025 105.0981 255.2372 14.59732830171486
FALCON
1 30776U 07006E   09017.92635552  .00000331  00000-0  27042-4 0 04867
2 30776 035.4348 291.0045 0001142 018.0468 342.0289 15.03149576102471
MAST
1 31126U 07012K   09018.64994876 -.00000058  00000-0 -25213-5 0  5072
2 31126 098.0109 080.1461 0095195 024.5212 336.0460 14.53471985 93312
CAPE1
1 31130U 07012P   09018.81614123 -.00000126  00000-0 -18238-4 0  5063
2 31130 098.0134 078.8245 0103451 028.4494 332.2279 14.52025837 93012
COMPASS
1 32787U 08021E   09018.37243664  .00000237  00000-0  37020-4 0  2565
2 32787 097.9641 083.3277 0016217 155.5163 204.6826 14.81534701 39260
AAUSAT2
1 32788U 08021F   09017.87978082  .00000192  00000-0  31173-4 0 02629
2 32788 097.9623 082.8722 0015765 158.0150 202.1713 14.81651036039192
DO-64
1 32789U 08021G   09017.89758837  .00000470  00000-0  66579-4 0  2689
2 32789 097.9678 082.9708 0016180 156.7560 203.4382 14.81592137 39192
CO-66
1 32791U 08021J   09017.31794123  .00000057  00000-0  14118-4 0 02501
2 32791 097.9664 082.3069 0016497 157.1423 203.0524 14.81374794039076
RS-30
1 32953U 08025A   09017.99597222  .00000010  00000-0  00000 0 0  2105
2 32953 082.5032 350.0052 0019406 142.5467 217.6967 12.42999453 29735
/EX






More information about the Keps mailing list